Terminal Aerodrome Forecast
Issued by NWS Green Bay, WI

Home | Current Version | Previous Version | Graphics & Text | Print | Product List | Glossary On
Versions: 1 2 3 4 5 6 7 8 9 10 11 12 13 14 15 16 17 18 19 20 21 22 23 24 25 26 27 28 29
000
FTUS43 KGRB 021100
TAFGRB
TAF
KGRB 021131Z 0212/0312 19004KT P6SM BKN070 BKN100
     FM021500 22011KT P6SM SCT080 SCT100
     FM030100 19006KT P6SM SCT100 SCT250=

USA.gov is the U.S. government's official web portal to all federal, state and local government web resources and services.